Starlink 36133

operational
NORAD ID: 66963 Int'l Des: 2025-288 Owner: SPXS Country: US Constellation: starlink
LEOCIRCULAR

关于 Starlink 36133

正在加载描述...

实时位置

正在加载3D地球...

即将过境

高度历史

Altitude vs Time

uPlot chart will show altitude changes over time

两行轨道根数

1 66963C 25288E 25346.09909722 -.01033900 00000+0 -19090-2 0 3467
2 66963 43.0036 171.8492 0001856 272.0034 123.7652 16.01206703 11
Epoch: Dec 12, 2025 • Age: 56 hours

当前状态

高度 294.1 km
速度 7.73 km/s
星下点 -42.38°S, 145.44°W
发射日期 Dec 8, 2025
运行时间 5 days
类型 internet

技术详情

分类 Payload
质量 575.00 kg
干质量 530.00 kg
总质量 575.00 kg
长度 0.30 m
直径 4.10 m
跨度 29.00 m
形状 Box + pan
制造商 SPXS
平台类型 Starlink V2MO
阶段状态 In Orbit
所有者/国家 SPXS/US

大型星座

Loading constellations...